Weather History for Chattanooga, TN

Change the Weather History Date:

Wednesday, March 26, 2014

  Actual Average Record
Temperature  
Mean Temperature 39 °F 55 °F  
Max Temperature 52 °F 67 °F 84 °F (1991)
Min Temperature 26 °F 43 °F 19 °F (1894)
Degree Days  
Heating Degree Days 26 10  
Month to date heating degree days 382 355  
Since 1 July heating degree days 3176 2977  
Cooling Degree Days 0 0  
Month to date cooling degree days 0 0  
Year to date cooling degree days 0 0  
Moisture  
Dew Point 12 °F    
Average Humidity 40    
Maximum Humidity 63    
Minimum Humidity 16    
Precipitation  
Precipitation 0.00 in 0.16 in 2.93 in (2011)
Month to date precipitation 1.76 4.18  
Year to date precipitation 9.35 13.93  
Snow  
Snow 0.00 in 0.00 in - ()
Month to date snowfall T 1.1  
Since 1 July snowfall 8.4 3.7  
Snow Depth 0.00 in    
Sea Level Pressure  
Sea Level Pressure 30.30 in    
Wind  
Wind Speed 5 mph (North)    
Max Wind Speed 16 mph    
Max Gust Speed 21 mph    
Visibility 10 miles    
Events      
T = Trace of Precipitation, MM = Missing Value Source: NWS Daily Summary

Daily Weather History Graph

Daily Weather History Graph

Search for Another Location

Airport:

Trip Planner

Search our weather history database for the weather conditions in past years. The results will help you decide how hot, cold, wet, or windy it might be!

Date:

Astronomy

Mar. 26, 2014 Rise Set
Actual Time 7:36 AM EDT 7:57 PM EDT
Civil Twilight 7:10 AM EDT 8:22 PM EDT
Nautical Twilight 6:41 AM EDT 8:52 PM EDT
Astronomical Twilight 6:10 AM EDT 9:22 PM EDT
Moon 4:34 AM EDT (3/26) 3:44 PM EDT (3/26)
Length of Visible Light 13h 12m
Length of Day
12h 21m
Waning Crescent, 22% of the Moon is Illuminated
Mar 26
Waning Crescent
Mar 30
New
Apr 7
First Quarter
Apr 15
Full
Apr 22
Last Quarter

Hourly Weather History & Observations

Time (EDT) Temp. Windchill Dew Point Humidity Pressure Visibility Wind Dir Wind Speed Gust Speed Precip Events Conditions
12:53 AM 34.0 °F 29.8 °F 10.9 °F 38% 30.26 in 10.0 mi North 4.6 mph - N/A   Clear
1:53 AM 33.1 °F 24.9 °F 12.9 °F 43% 30.25 in 10.0 mi North 10.4 mph - N/A   Clear
2:53 AM 32.0 °F 24.8 °F 12.9 °F 45% 30.27 in 10.0 mi NNW 8.1 mph - N/A   Clear
3:53 AM 28.9 °F 22.8 °F 15.1 °F 56% 30.27 in 10.0 mi North 5.8 mph - N/A   Clear
4:53 AM 30.9 °F 22.8 °F 15.1 °F 52% 30.27 in 10.0 mi North 9.2 mph - N/A   Clear
5:53 AM 28.0 °F 20.8 °F 15.1 °F 58% 30.30 in 10.0 mi NNW 6.9 mph - N/A   Clear
6:53 AM 27.0 °F 19.5 °F 16.0 °F 63% 30.31 in 10.0 mi NW 6.9 mph - N/A   Clear
7:53 AM 26.1 °F 18.4 °F 16.0 °F 66% 30.35 in 10.0 mi NW 6.9 mph - N/A   Clear
8:53 AM 30.9 °F 23.5 °F 16.0 °F 54% 30.37 in 10.0 mi North 8.1 mph - N/A   Clear
9:53 AM 34.0 °F 25.5 °F 12.0 °F 40% 30.38 in 10.0 mi North 11.5 mph - N/A   Clear
10:53 AM 37.0 °F 28.9 °F 12.0 °F 36% 30.39 in 10.0 mi North 12.7 mph 20.7 mph N/A   Clear
11:53 AM 39.0 °F 31.8 °F 10.0 °F 30% 30.40 in 10.0 mi North 11.5 mph 17.3 mph N/A   Clear
12:53 PM 42.1 °F - 8.1 °F 25% 30.38 in 10.0 mi Calm Calm - N/A   Clear
1:53 PM 45.0 °F 40.6 °F 7.0 °F 21% 30.35 in 10.0 mi NNE 8.1 mph - N/A   Clear
2:53 PM 46.9 °F - 6.1 °F 19% 30.32 in 10.0 mi SW 4.6 mph - N/A   Clear
3:53 PM 48.9 °F - 6.1 °F 18% 30.31 in 10.0 mi East 4.6 mph - N/A   Partly Cloudy
4:53 PM 51.1 °F - 6.1 °F 16% 30.27 in 10.0 mi East 4.6 mph - N/A   Partly Cloudy
5:53 PM 50.0 °F - 6.1 °F 17% 30.27 in 10.0 mi ESE 4.6 mph - N/A   Clear
6:53 PM 51.1 °F - 6.1 °F 16% 30.27 in 10.0 mi South 4.6 mph - N/A   Partly Cloudy
7:53 PM 48.9 °F - 8.1 °F 19% 30.26 in 10.0 mi SSE 3.5 mph - N/A   Partly Cloudy
8:53 PM 45.0 °F 42.6 °F 12.0 °F 26% 30.25 in 10.0 mi ESE 4.6 mph - N/A   Partly Cloudy
9:53 PM 42.1 °F - 17.1 °F 37% 30.27 in 10.0 mi Calm Calm - N/A   Clear
10:53 PM 39.0 °F - 23.0 °F 53% 30.27 in 10.0 mi Calm Calm - N/A   Clear
11:53 PM 37.0 °F - 25.0 °F 62% 30.27 in 10.0 mi Calm Calm - N/A   Clear